Weather in Chimkent

Kazakhstan     42°18′55″N   69°35′12″E
temp.,
°C
wind,
m/s
gust,
m/s
humid.,
%
clouds,
%
prec.,
mm/h
press.,
hPa
HPBL,
m
28 february, sun
sun2800:00−2s366342 0.0 1030102
03:00−3se236234 0.0 102923
06:00−3ese226118 0.0 102824
09:00−1ese23580 0.0 102743
12:00+5ene22500 0.0 1025243
15:00+7ene11410 0.0 1022503
18:00+5nne12590 0.0 102223
21:00+1e11710 0.0 102322
1 march, mon
mon100:000sse006748 0.0 102222
03:00+2se225797 0.0 102122
06:00+2sse225298 0.0 102122
09:00+3se2251100 0.0 102122
12:00+10se014060 0.0 1020212
15:00+12sw23370 0.0 1019643
18:00+10s22560 0.0 101936
21:00+6se23560 0.0 102023
2 march, tue
tue200:00+6sse34440 0.0 102037
03:00+6s45440 0.0 102061
06:00+5ssw48490 0.0 1020106
09:00+6ssw5114631 0.0 1022187
12:00+11sw694140 0.0 1022606
15:00+14sw573982 0.0 10211162
18:00+11wnw354791 0.0 1021348
21:00+6wnw1158100 0.0 102322
3 march, wed
wed300:00+4w005971 0.0 102422
03:00+3nne116198 0.0 102322
06:00+3ene126298 0.0 102222
09:00+4ene1164100 0.0 102227
12:00+9ne1152100 0.0 1021381
15:00+10s6771100 0.3 1019702
18:00+10s5770100 0.6 1018684
21:00+6s5128372 0.0 1019354
4 march, thu
thu400:00+6sse367972 0.0 1019111
03:00+6s347544 0.0 101878
06:00+6s5117048 0.0 1018176
09:00+7ssw5116862 0.0 1018274
12:00+12sw8115680 0.0 10181357
15:00+14sw7104486 0.0 10162056
18:00+10wnw785986 0.0 1017831
21:00+5wnw4588100 0.6 1019442